Temperature
29 26 25 25 26 27 27 27 27 28 29 29 28 26 26 26 26 25 25 25 24 24 24 24 24 23 23 22 22 22 21 21 20 20 20 19 19 19 19 19 19 19 19 18
25 25 27 28 28 28 28 27 27 28 29 29 27 27 26 26 26 26 25 25 24 24 24 24 24 23 23 23 22 22 21 21 21 20 20 20 20 19 19 19 19 19 19 19
25 26 28 29 28 28 28 27 27 28 28 28 27 26 26 26 27 27 26 26 25 25 24 24 24 23 23 23 23 22 22 22 21 21 20 20 19 19 19 19 19 19 19 19
26 27 29 29 28 29 27 28 29 29 27 25 27 24 25 25 25 26 26 25 25 25 25 24 24 24 24 24 23 23 22 22 21 21 20 20 20 20 20 20 19 19 19 19
26 27 28 28 29 29 28 29 29 28 26 25 25 24 24 24 24 25 25 25 25 25 25 25 25 25 24 24 24 23 23 22 22 21 21 21 20 20 20 20 19 19 19 19
26 28 28 29 29 30 29 28 27 24 23 24 25 24 24 23 24 25 25 26 26 25 25 25 25 25 24 24 24 23 23 22 22 22 21 21 21 20 20 20 20 19 19 19
26 27 28 29 28 29 28 24 23 24 22 23 24 24 23 24 25 26 26 26 26 25 25 25 24 24 24 24 24 23 23 23 22 22 21 21 21 21 20 20 20 20 20 19
24 24 27 28 28 27 27 24 23 24 23 23 24 24 24 25 26 26 27 27 26 26 25 25 25 24 24 24 24 23 23 23 22 22 22 21 21 20 20 20 20 20 20 20
23 24 27 28 29 28 27 25 23 22 22 22 22 23 24 25 25 25 25 25 25 25 25 25 25 25 24 24 24 24 23 23 22 22 22 21 21 21 20 20 20 20 20 20
24 24 25 27 28 28 27 25 22 21 22 22 23 23 23 23 24 24 23 24 24 25 25 25 25 25 24 24 24 24 23 23 22 22 22 21 21 21 20 20 20 20 20 20
23 23 24 25 27 27 27 26 23 20 21 21 22 22 24 23 23 23 23 24 24 25 25 25 25 25 25 24 24 23 23 23 22 22 22 22 21 21 21 20 20 20 20 20
22 20 21 23 25 26 26 25 22 22 22 20 21 22 24 23 23 23 23 24 25 25 25 25 25 24 24 24 23 23 23 23 22 22 22 22 22 21 21 21 20 20 20 19
22 20 21 22 23 24 25 25 24 21 20 19 20 22 23 22 22 23 23 24 24 24 24 24 24 24 23 23 23 23 23 23 22 22 22 21 21 21 21 21 21 20 20 19
22 19 20 21 22 23 24 25 25 22 21 20 21 22 22 22 22 22 22 23 23 23 24 23 23 23 23 23 23 22 22 22 22 21 21 21 21 21 21 21 20 20 20 19
19 19 20 21 22 24 24 25 25 24 22 22 21 21 21 21 21 22 22 22 22 22 23 23 22 22 22 22 22 22 22 22 21 21 21 21 21 21 21 20 20 20 19 19
17 19 20 20 22 23 23 24 24 24 24 23 22 21 21 21 21 21 21 21 21 21 22 22 22 22 22 22 22 22 21 21 21 21 21 20 20 20 20 20 20 20 19 19
17 18 18 18 20 21 21 22 23 23 22 22 21 20 20 20 20 20 21 21 21 21 21 21 21 21 21 21 21 21 21 21 21 20 20 20 20 20 20 20 19 19 19 19
17 16 15 17 19 20 20 22 23 22 21 21 20 20 20 20 21 21 21 21 21 21 21 21 21 21 21 21 21 21 21 20 20 20 20 20 20 19 19 19 19 19 18 18
16 16 16 16 18 19 20 22 22 20 19 19 19 20 20 20 20 20 21 21 21 21 21 21 20 20 20 20 20 20 20 19 19 19 19 19 19 19 19 19 19 18 18 18
16 15 16 16 18 18 19 21 22 20 18 19 19 18 19 19 17 18 20 21 21 21 21 20 20 20 20 19 19 19 19 18 18 19 19 19 19 18 19 18 18 18 18 17
16 15 15 16 16 17 18 20 20 18 17 18 18 19 19 18 18 19 20 20 20 20 20 20 20 19 19 19 18 18 18 18 18 18 18 18 18 18 18 17 17 17 17 17
15 15 15 14 15 16 18 18 17 16 18 18 18 19 19 19 19 19 19 19 20 19 19 19 19 19 18 18 18 18 17 18 17 17 17 17 17 17 17 17 17 17 16 16
15 14 14 14 15 16 17 17 18 18 18 18 18 18 19 18 19 19 19 19 19 19 19 18 18 18 18 17 17 17 17 17 17 17 17 17 16 16 16 16 16 16 16 16
15 14 13 14 15 16 17 17 18 18 18 18 18 18 19 18 18 18 18 18 18 18 18 18 18 17 17 17 16 16 16 16 16 16 16 16 16 15 15 15 15 15 15 15
14 14 13 13 14 16 17 17 17 17 17 17 17 18 18 18 18 17 17 17 17 17 17 17 17 16 16 16 16 16 16 16 15 15 15 15 15 15 15 15 15 15 15 15
13 13 13 13 14 14 15 17 17 17 17 17 17 17 17 17 17 17 16 16 16 16 16 16 16 16 16 16 16 15 15 15 15 15 15 15 14 14 14 14 14 14 14 14
Wind_Speed
3 1 5 9 9 9 7 6 6 7 5 2 4 6 13 15 15 16 15 14 15 16 13 14 15 15 14 12 12 12 11 10 7 5 4 4 4 3 3 5 8 10 10 10
4 7 12 9 9 8 8 6 5 5 6 3 3 6 10 14 17 18 19 18 16 13 12 14 14 15 15 14 13 12 11 11 9 7 5 4 4 4 4 4 6 9 10 10
10 11 8 7 8 7 8 7 6 6 4 2 2 1 4 8 9 11 13 15 16 19 19 17 16 15 15 15 15 14 12 11 10 8 4 3 2 1 1 3 4 5 8 9
8 10 8 9 9 7 8 9 7 7 2 3 3 3 7 8 8 11 12 13 14 16 16 16 17 17 17 17 15 13 13 11 10 9 7 7 6 5 5 4 4 4 6 7
8 7 8 10 10 9 9 8 6 5 3 1 2 4 6 3 7 11 12 14 15 16 17 18 18 18 16 16 14 13 12 11 10 10 10 8 6 5 3 3 4 4 4 5
9 8 8 10 10 7 5 1 3 3 4 2 6 5 7 6 10 11 12 13 14 16 17 16 15 13 12 13 12 12 12 11 11 11 10 9 8 7 5 5 5 4 3 4
9 9 7 5 5 5 2 4 2 4 3 6 4 3 7 7 8 11 12 13 13 14 14 13 12 12 12 13 13 12 12 11 11 11 10 9 9 8 8 6 6 5 4 4
5 9 7 4 7 8 6 9 8 6 6 5 3 3 5 4 3 5 6 8 9 11 12 13 13 13 13 14 14 13 13 11 10 10 9 8 7 6 6 7 6 6 5 5
7 9 7 6 5 7 6 6 10 8 4 1 4 4 4 2 2 3 4 5 7 10 12 12 12 12 12 13 14 14 13 10 10 10 8 7 7 6 6 6 6 5 5 5
7 6 8 7 3 3 7 8 6 6 6 4 4 4 4 4 3 3 5 5 5 7 9 10 12 12 12 12 11 12 11 11 9 9 9 8 7 7 6 5 6 6 6 5
3 5 7 4 2 4 2 1 4 5 6 7 4 6 5 8 6 5 4 4 7 7 7 9 10 11 10 10 10 10 10 9 9 9 8 7 7 7 6 6 6 6 6 6
1 4 4 8 7 4 3 4 6 5 5 6 6 6 3 5 5 6 5 4 5 7 7 8 9 8 9 9 9 10 10 10 10 10 9 8 7 7 7 7 7 6 6 6
2 4 1 7 8 6 2 1 2 4 4 5 5 5 1 4 6 4 6 6 6 7 7 7 7 8 9 9 9 8 9 9 9 8 8 8 7 7 8 8 6 5 5 5
3 3 5 7 6 5 5 7 3 4 3 3 6 6 3 3 6 5 6 6 7 7 7 8 7 7 8 7 7 8 7 7 7 7 8 8 8 8 8 7 6 6 5 5
5 2 1 4 4 3 5 7 6 2 5 7 7 8 9 8 7 6 6 7 8 9 8 6 5 5 6 6 5 5 6 6 6 7 7 8 8 7 6 6 6 5 5 5
4 1 3 5 5 5 6 7 4 3 1 4 6 2 3 4 5 6 6 8 9 8 7 6 6 6 5 5 5 4 4 4 5 7 7 7 6 6 6 7 6 5 5 5
1 2 2 4 6 5 6 5 2 2 2 4 5 6 6 6 6 6 5 7 8 7 6 6 6 5 4 4 5 5 5 4 4 4 5 5 5 5 5 6 5 5 5 5
4 2 2 0 4 2 7 4 3 6 7 5 3 5 8 7 5 5 5 6 5 5 5 5 5 5 3 3 3 3 4 4 5 4 4 4 4 5 5 5 6 6 5 5
7 6 3 2 2 5 7 6 3 5 6 5 4 5 5 7 6 5 2 5 5 5 5 4 4 5 3 2 3 3 2 2 3 4 4 5 5 5 5 6 7 6 6 5
3 5 5 3 3 5 5 7 1 8 2 5 4 5 3 5 4 2 1 4 5 5 5 4 4 4 3 1 1 3 2 2 3 4 5 5 5 5 5 6 6 5 5 5
3 2 3 4 4 5 5 7 4 3 4 2 3 4 4 2 3 3 2 3 4 4 4 4 4 3 2 2 3 2 1 2 4 3 3 3 3 4 4 4 3 3 3 3
2 1 2 3 3 6 5 3 2 4 3 2 3 3 3 2 2 3 3 3 3 3 3 4 3 2 1 2 3 2 2 3 2 2 2 3 3 3 2 3 3 3 3 4
1 3 3 4 5 4 2 3 3 4 3 1 2 1 3 3 2 3 2 2 2 3 2 2 3 2 0 1 2 2 3 2 1 1 2 2 2 3 3 4 4 4 4 5
3 1 2 1 1 1 2 3 2 2 1 0 2 2 3 2 1 2 2 1 2 2 1 1 2 1 1 1 1 2 3 2 1 1 2 2 2 3 3 3 3 4 4 5
4 2 1 0 3 3 4 2 2 4 4 3 1 2 2 1 1 1 2 1 1 1 1 2 2 1 2 2 2 2 2 1 1 2 2 2 2 3 3 3 3 4 4 6
3 3 3 5 6 3 5 4 1 2 2 1 1 1 1 1 1 1 1 1 1 1 1 1 1 1 2 2 2 2 2 2 2 2 3 3 3 3 3 3 3 3 4 4
Wind_Direction
297 95 236 231 214 206 222 247 262 265 254 208 194 183 180 182 181 180 181 182 183 185 182 176 174 172 169 170 171 172 172 179 173 171 172 180 201 207 202 205 206 202 202 199
332 261 240 229 232 229 233 249 255 273 275 241 196 199 190 184 190 187 185 186 186 181 177 179 177 174 175 176 177 176 177 179 181 183 180 181 186 204 207 209 206 203 197 197
224 244 247 241 246 243 252 224 216 227 284 330 116 306 218 211 202 195 191 190 186 185 183 182 182 182 179 181 182 183 184 183 185 180 167 166 150 184 199 215 213 212 201 199
244 248 254 253 249 226 249 232 211 218 182 266 163 218 260 216 204 200 196 192 191 193 187 184 184 185 186 188 185 182 182 183 184 176 173 174 184 197 208 204 207 212 203 201
252 250 253 254 247 227 227 233 222 222 185 281 305 155 263 205 205 208 203 198 197 193 189 189 188 187 188 187 184 182 181 184 183 181 183 185 195 203 203 196 202 209 208 205
251 255 231 236 251 227 211 245 356 36 78 262 245 180 249 212 204 205 206 200 197 192 189 190 187 180 181 180 179 180 182 188 186 185 186 190 195 195 191 200 201 204 208 217
285 284 267 245 266 281 125 106 15 334 350 249 257 184 245 238 201 194 197 198 196 192 188 184 180 177 180 181 180 178 181 188 189 188 191 193 195 191 194 199 201 195 202 214
236 275 266 251 212 223 211 152 170 206 221 262 304 214 248 239 186 165 170 181 181 183 186 184 184 182 181 183 181 179 181 183 183 187 193 190 189 191 197 197 194 199 208 215
201 250 271 267 238 185 206 194 181 162 183 201 266 268 300 344 68 95 120 135 157 176 182 183 178 178 179 183 183 180 178 179 182 186 185 185 189 191 197 198 197 205 213 216
183 246 278 283 307 279 190 174 110 129 164 216 256 244 226 218 184 132 126 136 154 161 174 177 174 175 177 181 179 171 171 177 180 182 184 191 193 194 194 194 205 212 217 221
161 197 284 318 218 254 300 136 133 141 161 164 208 258 216 188 176 148 138 141 152 154 159 173 176 178 172 166 167 167 173 175 180 187 188 191 192 194 195 201 212 218 221 217
166 146 252 264 260 226 198 202 156 163 217 171 169 249 254 166 146 136 130 122 141 151 149 153 159 153 153 158 166 174 177 177 185 187 189 194 195 192 199 207 212 213 219 218
47 100 5 327 334 357 13 312 160 154 144 160 169 235 275 114 105 111 121 120 126 131 134 137 142 150 156 162 167 175 178 183 184 182 186 195 198 200 206 210 209 207 211 214
72 104 166 205 239 276 302 308 319 123 156 193 197 199 238 169 138 136 116 114 110 113 125 135 147 155 159 160 161 171 174 176 176 176 187 197 204 209 211 208 204 206 204 202
72 103 217 232 258 280 298 312 322 287 201 189 201 193 208 196 165 151 126 110 99 97 101 121 141 144 144 142 146 160 169 175 177 180 190 202 207 208 204 202 204 203 203 208
49 79 11 336 344 353 328 316 319 324 298 157 137 196 218 162 129 121 121 117 113 110 111 112 118 127 133 145 154 166 172 177 179 189 199 202 199 200 201 204 203 202 209 211
346 87 47 300 320 1 318 300 311 6 358 168 187 196 153 130 136 142 133 118 117 116 120 126 128 140 149 162 167 178 185 183 180 190 199 200 198 203 210 208 204 210 215 210
175 136 137 264 24 262 252 288 76 74 22 23 101 143 148 144 144 131 128 126 127 127 127 125 132 139 146 152 162 178 171 176 176 178 196 203 198 205 210 208 209 214 215 216
166 152 135 130 196 267 296 323 5 87 8 6 87 99 124 131 85 53 73 120 132 129 134 135 135 135 133 131 150 142 147 166 173 190 204 212 207 207 209 211 214 212 210 216
73 116 134 150 178 227 265 316 21 93 354 338 77 90 102 112 116 216 206 114 107 114 119 113 105 94 91 86 112 113 141 177 205 217 220 221 215 215 219 221 221 216 207 209
20 41 144 181 209 249 283 317 28 119 209 298 64 80 69 95 174 201 125 102 115 115 121 114 104 105 133 135 111 115 156 223 233 228 227 225 224 225 220 224 223 214 213 204
169 147 211 162 191 248 302 20 114 191 201 129 88 81 80 72 76 81 94 109 112 109 113 116 111 107 134 129 130 151 227 244 248 237 234 237 234 236 235 218 225 207 196 206
134 184 195 190 211 254 310 124 161 150 121 130 112 69 85 73 72 103 92 108 121 113 110 115 119 111 32 153 145 187 242 245 238 247 251 253 251 243 226 211 215 215 208 212
322 38 89 44 297 319 32 61 48 64 81 85 105 94 83 85 73 107 110 122 125 115 130 122 112 123 259 255 226 223 241 239 223 253 267 261 246 244 239 228 220 215 216 220
278 348 40 308 285 3 10 29 26 15 8 21 33 54 98 92 28 125 123 148 151 165 165 144 154 208 259 252 251 259 244 219 254 261 260 263 255 242 243 246 241 232 231 220
260 193 184 232 241 229 259 269 310 358 322 324 45 21 50 114 189 117 146 180 178 196 189 159 175 231 265 272 268 255 236 208 220 253 262 260 261 260 244 244 273 287 249 233
Height
1484 1492 1497 1494 1492 1494 1496 1501 1502 1493 1483 1487 1491 1493 1492 1494 1496 1498 1500 1503 1505 1507 1511 1514 1517 1520 1522 1525 1527 1528 1530 1532 1534 1535 1536 1538 1539 1540 1541 1541 1542 1543 1543 1544
1491 1494 1484 1482 1483 1487 1491 1498 1499 1491 1482 1486 1491 1492 1489 1490 1490 1491 1494 1498 1502 1505 1509 1512 1514 1517 1519 1522 1524 1526 1528 1530 1532 1533 1535 1536 1538 1538 1539 1540 1540 1541 1542 1542
1491 1484 1477 1479 1483 1487 1489 1494 1495 1494 1486 1484 1491 1500 1494 1490 1490 1492 1493 1495 1498 1500 1503 1507 1511 1513 1516 1519 1521 1524 1526 1528 1530 1532 1534 1535 1536 1537 1537 1538 1538 1539 1540 1540
1482 1476 1476 1479 1480 1482 1493 1480 1482 1485 1496 1503 1496 1518 1500 1491 1490 1489 1491 1493 1495 1497 1500 1503 1506 1509 1512 1515 1518 1521 1524 1526 1528 1530 1531 1532 1533 1533 1534 1535 1536 1537 1538 1538
1481 1473 1475 1477 1474 1473 1478 1472 1477 1481 1492 1503 1500 1512 1505 1491 1493 1488 1487 1488 1491 1493 1495 1498 1501 1505 1509 1512 1516 1519 1521 1524 1526 1528 1529 1530 1531 1532 1533 1533 1534 1535 1536 1536
1472 1466 1467 1467 1464 1465 1467 1474 1480 1489 1501 1518 1504 1509 1508 1493 1487 1483 1481 1483 1485 1488 1491 1495 1499 1503 1506 1510 1513 1516 1519 1521 1523 1525 1526 1528 1529 1530 1530 1530 1531 1532 1533 1534
1476 1468 1462 1461 1467 1465 1470 1492 1515 1518 1525 1520 1499 1503 1501 1479 1473 1473 1475 1477 1480 1484 1488 1492 1496 1500 1503 1506 1509 1513 1515 1518 1520 1522 1523 1525 1526 1527 1528 1529 1529 1530 1531 1532
1489 1486 1464 1459 1464 1470 1471 1486 1514 1526 1528 1518 1501 1503 1489 1472 1469 1469 1470 1472 1476 1481 1485 1488 1492 1496 1498 1502 1505 1508 1511 1514 1516 1518 1520 1522 1524 1525 1526 1527 1527 1528 1529 1530
1485 1481 1459 1454 1453 1458 1469 1478 1481 1502 1509 1518 1510 1496 1482 1471 1469 1469 1469 1470 1472 1476 1480 1483 1488 1492 1495 1498 1501 1504 1507 1510 1513 1515 1517 1519 1521 1522 1523 1524 1525 1526 1527 1527
1469 1477 1463 1454 1451 1452 1457 1465 1486 1502 1518 1523 1511 1501 1495 1481 1474 1470 1470 1471 1472 1474 1477 1480 1484 1488 1491 1495 1498 1501 1504 1507 1510 1512 1514 1515 1517 1519 1520 1521 1522 1523 1524 1524
1463 1475 1469 1461 1461 1464 1462 1467 1479 1494 1499 1514 1519 1506 1474 1473 1470 1469 1470 1471 1472 1473 1475 1478 1481 1485 1489 1493 1495 1498 1501 1505 1508 1509 1511 1513 1513 1515 1517 1518 1518 1519 1520 1521
1463 1474 1479 1467 1454 1450 1455 1462 1475 1493 1497 1499 1506 1499 1467 1467 1466 1467 1468 1470 1470 1471 1473 1476 1480 1484 1487 1490 1493 1497 1499 1502 1505 1506 1507 1509 1510 1511 1512 1513 1515 1516 1517 1517
1462 1476 1488 1482 1472 1461 1460 1459 1465 1476 1488 1498 1504 1494 1467 1465 1466 1467 1467 1468 1469 1470 1472 1475 1479 1482 1484 1487 1491 1494 1497 1499 1501 1503 1505 1506 1507 1508 1508 1509 1511 1512 1513 1514
1458 1475 1485 1490 1483 1471 1467 1461 1459 1472 1488 1492 1489 1483 1474 1468 1466 1467 1468 1468 1469 1471 1472 1475 1478 1480 1483 1485 1488 1491 1494 1496 1498 1499 1501 1502 1503 1504 1505 1506 1507 1508 1509 1509
1462 1475 1472 1471 1465 1462 1461 1459 1457 1463 1469 1478 1477 1475 1469 1466 1465 1466 1468 1469 1469 1470 1473 1476 1477 1479 1481 1484 1487 1489 1490 1492 1494 1496 1498 1498 1500 1501 1502 1503 1504 1504 1505 1505
1466 1473 1472 1471 1463 1462 1462 1457 1456 1458 1460 1463 1466 1471 1463 1463 1464 1466 1467 1467 1469 1471 1472 1475 1476 1478 1480 1483 1484 1486 1488 1489 1491 1493 1494 1495 1496 1498 1498 1499 1500 1500 1501 1501
1471 1475 1480 1482 1470 1466 1474 1462 1458 1460 1459 1461 1467 1466 1462 1463 1464 1465 1466 1467 1468 1470 1473 1474 1476 1478 1479 1481 1482 1484 1485 1487 1489 1490 1491 1492 1492 1493 1494 1495 1495 1496 1496 1497
1469 1475 1483 1484 1479 1488 1474 1457 1454 1458 1460 1458 1458 1459 1459 1461 1463 1465 1467 1468 1469 1471 1473 1474 1475 1476 1478 1479 1481 1482 1483 1484 1485 1486 1487 1488 1488 1489 1489 1490 1490 1491 1492 1492
1460 1470 1482 1488 1488 1482 1467 1458 1457 1461 1469 1462 1461 1460 1461 1462 1464 1467 1468 1468 1468 1470 1471 1473 1475 1475 1477 1478 1478 1479 1480 1481 1482 1482 1482 1483 1483 1484 1484 1485 1485 1485 1486 1487
1460 1465 1478 1484 1486 1489 1472 1458 1455 1460 1474 1465 1462 1461 1462 1461 1470 1470 1468 1467 1468 1469 1470 1471 1473 1474 1475 1476 1476 1476 1477 1478 1478 1478 1479 1479 1478 1479 1479 1479 1480 1481 1481 1482
1471 1473 1478 1483 1485 1478 1464 1458 1455 1474 1476 1466 1464 1463 1463 1464 1466 1466 1467 1467 1468 1469 1469 1470 1471 1472 1473 1473 1474 1474 1474 1474 1475 1474 1475 1475 1475 1475 1474 1475 1476 1476 1477 1477
1474 1478 1480 1482 1486 1482 1462 1459 1465 1468 1464 1463 1463 1463 1463 1464 1464 1464 1465 1466 1467 1467 1468 1469 1469 1469 1470 1470 1470 1470 1470 1470 1470 1471 1471 1471 1470 1470 1470 1470 1471 1471 1472 1472
1471 1472 1474 1476 1477 1467 1461 1461 1462 1461 1462 1463 1462 1463 1462 1462 1462 1463 1464 1464 1465 1465 1466 1466 1466 1467 1468 1468 1468 1467 1467 1467 1467 1467 1466 1466 1466 1465 1466 1466 1466 1466 1466 1466
1468 1465 1469 1471 1469 1465 1463 1462 1461 1461 1461 1461 1461 1461 1461 1461 1462 1462 1462 1462 1463 1463 1464 1464 1464 1464 1464 1465 1465 1464 1464 1463 1463 1462 1462 1462 1461 1461 1461 1461 1461 1461 1460 1461
1470 1467 1470 1471 1468 1465 1463 1463 1462 1461 1461 1461 1460 1460 1459 1460 1460 1460 1460 1460 1460 1460 1460 1460 1461 1461 1461 1461 1461 1461 1460 1460 1458 1458 1457 1457 1457 1457 1456 1456 1456 1455 1455 1456
1466 1468 1470 1470 1465 1466 1463 1462 1461 1460 1460 1460 1459 1458 1459 1459 1459 1459 1459 1459 1459 1458 1458 1458 1458 1458 1457 1457 1457 1457 1456 1456 1455 1454 1453 1453 1453 1452 1452 1451 1451 1450 1451 1451